Time,TemperatureF,DewpointF,PressureIn,WindDirection,WindDirectionDegrees,WindSpeedMPH,WindSpeedGustMPH,Humidity,HourlyPrecipIn,Conditions,Clouds,dailyrainin,SoftwareType,DateUTC
2013-05-18 00:02:00,55.4,40.9,30.02,SSE,158,0.0,0.0,58,0.00,,,0.00,Wunderground v.1.15,2013-05-18 07:02:00,
2013-05-18 00:08:00,55.2,41.1,30.02,SSE,164,0.0,0.0,59,0.00,,,0.00,Wunderground v.1.15,2013-05-18 07:08:00,
2013-05-18 00:14:00,55.1,41.0,30.02,SSE,165,0.0,0.0,59,0.00,,,0.00,Wunderground v.1.15,2013-05-18 07:14:00,
2013-05-18 00:19:00,54.9,41.3,30.02,SSE,165,0.0,0.0,60,0.00,,,0.00,Wunderground v.1.15,2013-05-18 07:19:00,
2013-05-18 00:25:00,54.7,41.5,30.02,SSE,166,0.0,0.0,61,0.00,,,0.00,Wunderground v.1.15,2013-05-18 07:25:00,
2013-05-18 00:31:00,54.7,41.9,30.02,SSE,166,0.0,0.0,62,0.00,,,0.00,Wunderground v.1.15,2013-05-18 07:31:00,
2013-05-18 00:36:00,54.9,42.1,30.02,SSE,167,0.0,0.0,62,0.00,,,0.00,Wunderground v.1.15,2013-05-18 07:36:00,
2013-05-18 00:42:00,54.8,42.4,30.02,SSE,167,0.0,0.0,63,0.00,,,0.00,Wunderground v.1.15,2013-05-18 07:42:00,
2013-05-18 00:48:00,54.6,42.3,30.02,SSE,167,0.0,0.0,63,0.00,,,0.00,Wunderground v.1.15,2013-05-18 07:48:00,
2013-05-18 00:54:00,54.3,42.4,30.02,SSE,167,0.0,0.0,64,0.00,,,0.00,Wunderground v.1.15,2013-05-18 07:54:00,
2013-05-18 00:59:00,54.0,42.5,30.02,SSE,167,0.0,0.0,65,0.00,,,0.00,Wunderground v.1.15,2013-05-18 07:59:00,
2013-05-18 01:05:00,53.7,42.6,30.02,SSE,167,0.0,0.0,66,0.00,,,0.00,Wunderground v.1.15,2013-05-18 08:05:00,
2013-05-18 01:11:00,53.4,42.7,30.02,SSE,167,0.0,0.0,67,0.00,,,0.00,Wunderground v.1.15,2013-05-18 08:11:00,
2013-05-18 01:17:00,53.1,42.8,30.02,SSE,167,0.0,0.0,68,0.00,,,0.00,Wunderground v.1.15,2013-05-18 08:17:00,
2013-05-18 01:23:00,52.9,42.6,30.02,SSE,167,0.0,0.0,68,0.00,,,0.00,Wunderground v.1.15,2013-05-18 08:23:00,
2013-05-18 01:28:00,52.8,43.7,30.02,SSE,167,0.0,0.0,71,0.00,,,0.00,Wunderground v.1.15,2013-05-18 08:28:00,
2013-05-18 01:34:00,52.6,42.7,30.02,SSE,167,0.0,0.0,69,0.00,,,0.00,Wunderground v.1.15,2013-05-18 08:34:00,
2013-05-18 01:39:00,52.5,42.6,30.02,SSE,167,0.0,0.0,69,0.00,,,0.00,Wunderground v.1.15,2013-05-18 08:39:00,
2013-05-18 01:45:00,52.4,42.9,30.02,SSE,167,0.0,0.0,70,0.00,,,0.00,Wunderground v.1.15,2013-05-18 08:45:00,
2013-05-18 01:50:00,52.3,42.8,30.02,SSE,167,0.0,0.0,70,0.00,,,0.00,Wunderground v.1.15,2013-05-18 08:50:00,
2013-05-18 01:56:00,52.3,42.8,30.02,SSE,167,0.0,0.0,70,0.00,,,0.00,Wunderground v.1.15,2013-05-18 08:56:00,
2013-05-18 02:01:00,52.3,42.8,30.02,SSE,164,0.0,0.0,70,0.00,,,0.00,Wunderground v.1.15,2013-05-18 09:01:00,
2013-05-18 02:06:00,52.3,43.2,30.02,SSE,164,0.0,1.0,71,0.00,,,0.00,Wunderground v.1.15,2013-05-18 09:06:00,
2013-05-18 02:11:00,52.2,43.1,30.02,SSE,164,0.0,0.0,71,0.00,,,0.00,Wunderground v.1.15,2013-05-18 09:11:00,
2013-05-18 02:16:00,52.2,43.1,30.02,SSE,164,0.0,0.0,71,0.00,,,0.00,Wunderground v.1.15,2013-05-18 09:16:00,
2013-05-18 02:22:00,52.0,42.9,30.02,SSE,164,0.0,0.0,71,0.00,,,0.00,Wunderground v.1.15,2013-05-18 09:22:00,
2013-05-18 02:27:00,51.9,42.8,30.02,SSE,164,0.0,0.0,71,0.00,,,0.00,Wunderground v.1.15,2013-05-18 09:27:00,
2013-05-18 02:32:00,51.8,43.1,30.02,SSE,164,0.0,0.0,72,0.00,,,0.00,Wunderground v.1.15,2013-05-18 09:32:00,
2013-05-18 02:37:00,51.7,43.0,30.02,SSE,164,0.0,0.0,72,0.00,,,0.00,Wunderground v.1.15,2013-05-18 09:37:00,
2013-05-18 02:42:00,51.7,43.0,30.02,SSE,164,0.0,0.0,72,0.00,,,0.00,Wunderground v.1.15,2013-05-18 09:42:00,
2013-05-18 02:47:00,51.6,42.9,30.03,SSE,149,0.0,0.0,72,0.00,,,0.00,Wunderground v.1.15,2013-05-18 09:47:00,
2013-05-18 02:52:00,51.6,42.9,30.03,SSE,149,0.0,0.0,72,0.00,,,0.00,Wunderground v.1.15,2013-05-18 09:52:00,
2013-05-18 02:57:00,51.5,43.1,30.03,SSE,149,0.0,0.0,73,0.00,,,0.00,Wunderground v.1.15,2013-05-18 09:57:00,
2013-05-18 03:02:00,51.4,42.7,30.03,SSE,149,0.0,0.0,72,0.00,,,0.00,Wunderground v.1.15,2013-05-18 10:02:00,
2013-05-18 03:07:00,51.3,42.6,30.03,SSE,149,0.0,0.0,72,0.00,,,0.00,Wunderground v.1.15,2013-05-18 10:07:00,
2013-05-18 03:12:00,51.2,42.5,30.03,SSE,149,0.0,0.0,72,0.00,,,0.00,Wunderground v.1.15,2013-05-18 10:12:00,
2013-05-18 03:17:00,51.1,42.4,30.03,SSE,149,0.0,0.0,72,0.00,,,0.00,Wunderground v.1.15,2013-05-18 10:17:00,
2013-05-18 03:22:00,51.0,42.6,30.03,SSE,149,0.0,0.0,73,0.00,,,0.00,Wunderground v.1.15,2013-05-18 10:22:00,
2013-05-18 03:27:00,50.9,42.6,30.03,SSE,149,0.0,1.0,73,0.00,,,0.00,Wunderground v.1.15,2013-05-18 10:27:00,
2013-05-18 03:32:00,50.8,42.5,30.03,SSE,149,0.0,0.0,73,0.00,,,0.00,Wunderground v.1.15,2013-05-18 10:32:00,
2013-05-18 03:37:00,50.7,42.4,30.03,SSE,149,0.0,0.0,73,0.00,,,0.00,Wunderground v.1.15,2013-05-18 10:37:00,
2013-05-18 03:42:00,50.6,42.3,30.03,SSE,149,0.0,0.0,73,0.00,,,0.00,Wunderground v.1.15,2013-05-18 10:42:00,
2013-05-18 03:47:00,50.6,42.3,30.03,SSE,149,0.0,0.0,73,0.00,,,0.00,Wunderground v.1.15,2013-05-18 10:47:00,
2013-05-18 03:52:00,50.5,42.2,30.02,SE,142,0.0,0.0,73,0.00,,,0.00,Wunderground v.1.15,2013-05-18 10:52:00,
2013-05-18 03:57:00,50.4,42.1,30.02,SE,136,0.0,0.0,73,0.00,,,0.00,Wunderground v.1.15,2013-05-18 10:57:00,
2013-05-18 04:03:00,50.2,42.2,30.02,SE,136,0.0,0.0,74,0.00,,,0.00,Wunderground v.1.15,2013-05-18 11:03:00,
2013-05-18 04:08:00,50.0,42.4,30.02,SE,136,0.0,0.0,75,0.00,,,0.00,Wunderground v.1.15,2013-05-18 11:08:00,
2013-05-18 04:14:00,49.9,42.6,30.02,SE,136,0.0,0.0,76,0.00,,,0.00,Wunderground v.1.15,2013-05-18 11:14:00,
2013-05-18 04:19:00,49.8,42.5,30.02,SE,136,0.0,1.0,76,0.00,,,0.00,Wunderground v.1.15,2013-05-18 11:19:00,
2013-05-18 04:24:00,49.8,42.5,30.02,SE,144,0.0,0.0,76,0.00,,,0.00,Wunderground v.1.15,2013-05-18 11:24:00,
2013-05-18 04:29:00,49.7,42.1,30.02,SE,134,0.0,0.0,75,0.00,,,0.00,Wunderground v.1.15,2013-05-18 11:29:00,
2013-05-18 04:34:00,49.7,42.1,30.02,SE,134,0.0,1.0,75,0.00,,,0.00,Wunderground v.1.15,2013-05-18 11:34:00,
2013-05-18 04:39:00,49.7,42.1,30.02,SE,134,0.0,1.0,75,0.00,,,0.00,Wunderground v.1.15,2013-05-18 11:39:00,
2013-05-18 04:44:00,49.6,42.0,30.02,SE,134,0.0,0.0,75,0.00,,,0.00,Wunderground v.1.15,2013-05-18 11:44:00,
2013-05-18 04:49:00,49.5,41.9,30.03,SE,134,0.0,0.0,75,0.00,,,0.00,Wunderground v.1.15,2013-05-18 11:49:00,
2013-05-18 04:54:00,49.5,41.9,30.02,SE,137,0.0,0.0,75,0.00,,,0.00,Wunderground v.1.15,2013-05-18 11:54:00,
2013-05-18 04:59:00,49.5,41.9,30.02,SE,144,0.0,0.0,75,0.00,,,0.00,Wunderground v.1.15,2013-05-18 11:59:00,
2013-05-18 05:04:00,49.4,41.8,30.03,SE,144,0.0,0.0,75,0.00,,,0.00,Wunderground v.1.15,2013-05-18 12:04:00,
2013-05-18 05:09:00,49.4,41.8,30.03,SE,144,0.0,0.0,75,0.00,,,0.00,Wunderground v.1.15,2013-05-18 12:09:00,
2013-05-18 05:14:00,49.3,41.7,30.03,SE,144,0.0,0.0,75,0.00,,,0.00,Wunderground v.1.15,2013-05-18 12:14:00,
2013-05-18 05:19:00,49.3,41.7,30.03,SE,144,0.0,0.0,75,0.00,,,0.00,Wunderground v.1.15,2013-05-18 12:19:00,
2013-05-18 05:24:00,49.3,41.7,30.03,SE,134,0.0,1.0,75,0.00,,,0.00,Wunderground v.1.15,2013-05-18 12:24:00,
2013-05-18 05:29:00,49.2,42.0,30.03,SSE,158,0.0,1.0,76,0.00,,,0.00,Wunderground v.1.15,2013-05-18 12:29:00,
2013-05-18 05:34:00,49.1,41.9,30.04,SSE,157,0.0,0.0,76,0.00,,,0.00,Wunderground v.1.15,2013-05-18 12:34:00,
2013-05-18 05:39:00,49.1,41.9,30.04,SE,127,0.0,0.0,76,0.00,,,0.00,Wunderground v.1.15,2013-05-18 12:39:00,
2013-05-18 05:44:00,49.0,41.4,30.04,West,263,0.0,0.0,75,0.00,,,0.00,Wunderground v.1.15,2013-05-18 12:44:00,
2013-05-18 05:49:00,48.9,41.3,30.04,South,178,0.0,1.0,75,0.00,,,0.00,Wunderground v.1.15,2013-05-18 12:49:00,
2013-05-18 05:54:00,48.8,41.2,30.04,SE,138,0.0,0.0,75,0.00,,,0.00,Wunderground v.1.15,2013-05-18 12:54:00,
2013-05-18 05:59:00,48.8,41.2,30.04,SE,139,0.0,0.0,75,0.00,,,0.00,Wunderground v.1.15,2013-05-18 12:59:00,
2013-05-18 06:04:00,48.8,41.2,30.04,SE,139,0.0,0.0,75,0.00,,,0.00,Wunderground v.1.15,2013-05-18 13:04:00,
2013-05-18 06:10:00,48.8,41.2,30.04,SE,139,0.0,0.0,75,0.00,,,0.00,Wunderground v.1.15,2013-05-18 13:10:00,
2013-05-18 06:15:00,48.9,41.3,30.05,SE,138,0.0,0.0,75,0.00,,,0.00,Wunderground v.1.15,2013-05-18 13:15:00,
2013-05-18 06:20:00,49.0,41.4,30.05,SSE,149,0.0,0.0,75,0.00,,,0.00,Wunderground v.1.15,2013-05-18 13:20:00,
2013-05-18 06:25:00,49.2,41.6,30.05,SSE,159,0.0,0.0,75,0.00,,,0.00,Wunderground v.1.15,2013-05-18 13:25:00,
2013-05-18 06:30:00,49.4,41.8,30.05,SSE,159,0.0,0.0,75,0.00,,,0.00,Wunderground v.1.15,2013-05-18 13:30:00,
2013-05-18 06:35:00,49.7,41.7,30.05,SSE,158,0.0,1.0,74,0.00,,,0.00,Wunderground v.1.15,2013-05-18 13:35:00,
2013-05-18 06:40:00,49.9,41.9,30.05,SE,144,0.0,0.0,74,0.00,,,0.00,Wunderground v.1.15,2013-05-18 13:40:00,
2013-05-18 06:45:00,50.2,42.2,30.06,SE,131,0.0,0.0,74,0.00,,,0.00,Wunderground v.1.15,2013-05-18 13:45:00,
2013-05-18 06:50:00,50.5,42.5,30.06,ESE,119,0.0,0.0,74,0.00,,,0.00,Wunderground v.1.15,2013-05-18 13:50:00,
2013-05-18 06:55:00,50.8,42.8,30.06,ESE,118,0.0,0.0,74,0.00,,,0.00,Wunderground v.1.15,2013-05-18 13:55:00,
2013-05-18 07:00:00,51.1,43.1,30.06,ESE,119,0.0,0.0,74,0.00,,,0.00,Wunderground v.1.15,2013-05-18 14:00:00,
2013-05-18 07:05:00,51.5,43.5,30.07,ESE,119,0.0,1.0,74,0.00,,,0.00,Wunderground v.1.15,2013-05-18 14:05:00,
2013-05-18 07:10:00,51.9,43.5,30.07,SSE,163,0.0,0.0,73,0.00,,,0.00,Wunderground v.1.15,2013-05-18 14:10:00,
2013-05-18 07:15:00,52.3,43.9,30.07,WSW,242,2.0,2.0,73,0.00,,,0.00,Wunderground v.1.15,2013-05-18 14:15:00,
2013-05-18 07:20:00,52.5,43.7,30.07,SW,227,0.0,0.0,72,0.00,,,0.00,Wunderground v.1.15,2013-05-18 14:20:00,
2013-05-18 07:25:00,52.9,43.7,30.07,East,95,4.0,4.0,71,0.00,,,0.00,Wunderground v.1.15,2013-05-18 14:25:00,
2013-05-18 07:30:00,53.4,44.2,30.07,ESE,105,0.0,0.0,71,0.00,,,0.00,Wunderground v.1.15,2013-05-18 14:30:00,
2013-05-18 07:35:00,53.9,44.7,30.07,SSE,162,0.0,1.0,71,0.00,,,0.00,Wunderground v.1.15,2013-05-18 14:35:00,
2013-05-18 07:40:00,54.6,44.6,30.08,SE,140,0.0,0.0,69,0.00,,,0.00,Wunderground v.1.15,2013-05-18 14:40:00,
2013-05-18 07:45:00,55.0,45.0,30.08,ESE,103,1.0,1.0,69,0.00,,,0.00,Wunderground v.1.15,2013-05-18 14:45:00,
2013-05-18 07:50:00,55.6,44.8,30.08,ESE,103,0.0,0.0,67,0.00,,,0.00,Wunderground v.1.15,2013-05-18 14:50:00,
2013-05-18 08:05:00,56.3,45.5,30.08,SE,128,0.0,1.0,67,0.00,,,0.00,Wunderground v.1.15,2013-05-18 15:05:00,
2013-05-18 08:10:00,56.3,45.9,30.08,ESE,111,0.0,0.0,68,0.00,,,0.00,Wunderground v.1.15,2013-05-18 15:10:00,
2013-05-18 08:15:00,57.1,46.2,30.08,East,86,0.0,2.0,67,0.00,,,0.00,Wunderground v.1.15,2013-05-18 15:15:00,
2013-05-18 08:20:00,57.3,46.4,30.08,SSE,150,0.0,0.0,67,0.00,,,0.00,Wunderground v.1.15,2013-05-18 15:20:00,
2013-05-18 08:25:00,57.2,46.3,30.08,ESE,122,0.0,2.0,67,0.00,,,0.00,Wunderground v.1.15,2013-05-18 15:25:00,
2013-05-18 08:30:00,57.6,45.9,30.08,SSW,208,0.0,0.0,65,0.00,,,0.00,Wunderground v.1.15,2013-05-18 15:30:00,
2013-05-18 08:35:00,57.5,46.2,30.08,East,92,0.0,3.0,66,0.00,,,0.00,Wunderground v.1.15,2013-05-18 15:35:00,
2013-05-18 08:40:00,57.9,45.8,30.08,SSE,167,0.0,0.0,64,0.00,,,0.00,Wunderground v.1.15,2013-05-18 15:40:00,
2013-05-18 08:45:00,57.8,46.5,30.08,SE,128,0.0,3.0,66,0.00,,,0.00,Wunderground v.1.15,2013-05-18 15:45:00,
2013-05-18 08:50:00,59.1,46.9,30.09,ESE,109,1.0,2.0,64,0.00,,,0.00,Wunderground v.1.15,2013-05-18 15:50:00,
2013-05-18 08:55:00,59.4,45.9,30.09,East,101,6.0,6.0,61,0.00,,,0.00,Wunderground v.1.15,2013-05-18 15:55:00,
2013-05-18 09:00:00,60.0,46.5,30.09,South,171,1.0,3.0,61,0.00,,,0.00,Wunderground v.1.15,2013-05-18 16:00:00,
2013-05-18 09:05:00,59.1,46.1,30.09,South,173,0.0,3.0,62,0.00,,,0.00,Wunderground v.1.15,2013-05-18 16:05:00,
2013-05-18 09:10:00,59.3,46.3,30.09,South,188,0.0,2.0,62,0.00,,,0.00,Wunderground v.1.15,2013-05-18 16:10:00,
2013-05-18 09:15:00,59.3,45.8,30.09,South,182,0.0,7.0,61,0.00,,,0.00,Wunderground v.1.15,2013-05-18 16:15:00,
2013-05-18 09:20:00,59.1,46.1,30.09,South,178,0.0,2.0,62,0.00,,,0.00,Wunderground v.1.15,2013-05-18 16:20:00,
2013-05-18 09:25:00,59.8,46.3,30.09,South,183,2.0,7.0,61,0.00,,,0.00,Wunderground v.1.15,2013-05-18 16:25:00,
2013-05-18 09:31:00,60.2,46.7,30.09,South,182,0.0,2.0,61,0.00,,,0.00,Wunderground v.1.15,2013-05-18 16:31:00,
2013-05-18 09:36:00,61.5,46.6,30.09,ESE,106,3.0,5.0,58,0.00,,,0.00,Wunderground v.1.15,2013-05-18 16:36:00,
2013-05-18 09:41:00,62.5,46.6,30.09,ESE,107,0.0,1.0,56,0.00,,,0.00,Wunderground v.1.15,2013-05-18 16:41:00,
2013-05-18 09:46:00,61.7,46.3,30.09,SSE,162,0.0,5.0,57,0.00,,,0.00,Wunderground v.1.15,2013-05-18 16:46:00,
2013-05-18 09:51:00,61.5,46.6,30.09,SSW,213,0.0,1.0,58,0.00,,,0.00,Wunderground v.1.15,2013-05-18 16:51:00,
2013-05-18 09:56:00,61.8,46.4,30.09,SSE,161,0.0,6.0,57,0.00,,,0.00,Wunderground v.1.15,2013-05-18 16:56:00,
2013-05-18 10:01:00,62.7,46.8,30.09,South,178,0.0,1.0,56,0.00,,,0.00,Wunderground v.1.15,2013-05-18 17:01:00,
2013-05-18 10:06:00,63.9,47.4,30.08,SE,145,0.0,2.0,55,0.00,,,0.00,Wunderground v.1.15,2013-05-18 17:06:00,
2013-05-18 10:11:00,64.2,46.7,30.09,South,169,0.0,0.0,53,0.00,,,0.00,Wunderground v.1.15,2013-05-18 17:11:00,
2013-05-18 10:16:00,63.5,46.1,30.09,SSW,211,0.0,4.0,53,0.00,,,0.00,Wunderground v.1.15,2013-05-18 17:16:00,
2013-05-18 10:21:00,64.2,46.2,30.09,SSW,210,1.0,6.0,52,0.00,,,0.00,Wunderground v.1.15,2013-05-18 17:21:00,
2013-05-18 10:26:00,65.4,47.3,30.08,SE,132,0.0,6.0,52,0.00,,,0.00,Wunderground v.1.15,2013-05-18 17:26:00,
2013-05-18 10:31:00,65.3,46.2,30.09,SW,218,0.0,1.0,50,0.00,,,0.00,Wunderground v.1.15,2013-05-18 17:31:00,
2013-05-18 10:36:00,65.5,46.4,30.08,SSE,166,0.0,1.0,50,0.00,,,0.00,Wunderground v.1.15,2013-05-18 17:36:00,
2013-05-18 10:41:00,67.0,46.1,30.08,ESE,103,0.0,4.0,47,0.00,,,0.00,Wunderground v.1.15,2013-05-18 17:41:00,
2013-05-18 10:46:00,67.5,47.1,30.08,SE,145,0.0,4.0,48,0.00,,,0.00,Wunderground v.1.15,2013-05-18 17:46:00,
2013-05-18 10:51:00,67.5,46.6,30.08,ESE,105,0.0,2.0,47,0.00,,,0.00,Wunderground v.1.15,2013-05-18 17:51:00,
2013-05-18 10:56:00,67.0,46.7,30.08,SSW,194,0.0,2.0,48,0.00,,,0.00,Wunderground v.1.15,2013-05-18 17:56:00,
2013-05-18 11:01:00,68.9,46.7,30.08,ESE,118,0.0,1.0,45,0.00,,,0.00,Wunderground v.1.15,2013-05-18 18:01:00,
2013-05-18 11:07:00,68.5,45.7,30.08,SSW,206,0.0,7.0,44,0.00,,,0.00,Wunderground v.1.15,2013-05-18 18:07:00,
2013-05-18 11:12:00,68.1,45.9,30.08,SW,230,5.0,5.0,45,0.00,,,0.00,Wunderground v.1.15,2013-05-18 18:12:00,
2013-05-18 11:17:00,68.4,46.2,30.08,WSW,241,0.0,5.0,45,0.00,,,0.00,Wunderground v.1.15,2013-05-18 18:17:00,
2013-05-18 11:22:00,69.3,45.8,30.08,ENE,63,0.0,3.0,43,0.00,,,0.00,Wunderground v.1.15,2013-05-18 18:22:00,
2013-05-18 11:27:00,69.6,46.1,30.08,WNW,298,0.0,3.0,43,0.00,,,0.00,Wunderground v.1.15,2013-05-18 18:27:00,
2013-05-18 11:32:00,69.1,45.7,30.08,ENE,78,1.0,1.0,43,0.00,,,0.00,Wunderground v.1.15,2013-05-18 18:32:00,
2013-05-18 11:37:00,70.7,45.8,30.08,NE,43,0.0,1.0,41,0.00,,,0.00,Wunderground v.1.15,2013-05-18 18:37:00,
2013-05-18 11:42:00,71.0,44.8,30.08,NNE,17,0.0,6.0,39,0.00,,,0.00,Wunderground v.1.15,2013-05-18 18:42:00,
2013-05-18 11:47:00,70.5,43.7,30.08,SSW,199,0.0,6.0,38,0.00,,,0.00,Wunderground v.1.15,2013-05-18 18:47:00,
2013-05-18 11:52:00,70.7,45.2,30.08,South,180,0.0,1.0,40,0.00,,,0.00,Wunderground v.1.15,2013-05-18 18:52:00,
2013-05-18 11:57:00,72.3,46.6,30.08,WSW,257,0.0,2.0,40,0.00,,,0.00,Wunderground v.1.15,2013-05-18 18:57:00,
2013-05-18 12:02:00,70.8,45.9,30.08,SW,232,0.0,6.0,41,0.00,,,0.00,Wunderground v.1.15,2013-05-18 19:02:00,
2013-05-18 12:07:00,70.8,46.6,30.08,West,263,0.0,10.0,42,0.00,,,0.00,Wunderground v.1.15,2013-05-18 19:07:00,
2013-05-18 12:12:00,72.0,47.0,30.08,NNW,343,0.0,6.0,41,0.00,,,0.00,Wunderground v.1.15,2013-05-18 19:12:00,
2013-05-18 12:17:00,72.8,47.1,30.08,NNE,26,0.0,7.0,40,0.00,,,0.00,Wunderground v.1.15,2013-05-18 19:17:00,
2013-05-18 12:22:00,75.4,47.3,30.07,NNE,24,0.0,3.0,37,0.00,,,0.00,Wunderground v.1.15,2013-05-18 19:22:00,
2013-05-18 12:27:00,74.9,46.1,30.07,NW,304,0.0,5.0,36,0.00,,,0.00,Wunderground v.1.15,2013-05-18 19:27:00,
2013-05-18 12:32:00,74.0,46.1,30.07,WSW,239,0.0,2.0,37,0.00,,,0.00,Wunderground v.1.15,2013-05-18 19:32:00,
2013-05-18 12:38:00,75.3,46.5,30.07,NE,39,0.0,6.0,36,0.00,,,0.00,Wunderground v.1.15,2013-05-18 19:38:00,
2013-05-18 12:44:00,74.6,45.1,30.06,NNE,12,0.0,1.0,35,0.00,,,0.00,Wunderground v.1.15,2013-05-18 19:44:00,
2013-05-18 12:49:00,74.3,45.6,30.06,WSW,252,0.0,2.0,36,0.00,,,0.00,Wunderground v.1.15,2013-05-18 19:49:00,
2013-05-18 12:54:00,76.0,46.4,30.06,NE,48,0.0,5.0,35,0.00,,,0.00,Wunderground v.1.15,2013-05-18 19:54:00,
2013-05-18 12:59:00,76.3,44.3,30.06,NW,320,1.0,7.0,32,0.00,,,0.00,Wunderground v.1.15,2013-05-18 19:59:00,
2013-05-18 13:04:00,75.2,44.9,30.06,North,5,1.0,8.0,34,0.00,,,0.00,Wunderground v.1.15,2013-05-18 20:04:00,
2013-05-18 13:09:00,75.7,45.3,30.06,North,350,0.0,10.0,34,0.00,,,0.00,Wunderground v.1.15,2013-05-18 20:09:00,
2013-05-18 13:14:00,77.2,45.9,30.06,ENE,72,0.0,7.0,33,0.00,,,0.00,Wunderground v.1.15,2013-05-18 20:14:00,
2013-05-18 13:19:00,77.9,46.5,30.06,North,355,0.0,7.0,33,0.00,,,0.00,Wunderground v.1.15,2013-05-18 20:19:00,
2013-05-18 13:24:00,77.7,45.5,30.06,WSW,245,5.0,9.0,32,0.00,,,0.00,Wunderground v.1.15,2013-05-18 20:24:00,
2013-05-18 13:29:00,76.8,45.5,30.06,WSW,255,6.0,9.0,33,0.00,,,0.00,Wunderground v.1.15,2013-05-18 20:29:00,
2013-05-18 13:34:00,76.6,46.1,30.06,West,277,0.0,7.0,34,0.00,,,0.00,Wunderground v.1.15,2013-05-18 20:34:00,
2013-05-18 13:39:00,77.3,45.9,30.05,West,281,0.0,7.0,33,0.00,,,0.00,Wunderground v.1.15,2013-05-18 20:39:00,
2013-05-18 13:44:00,77.1,45.8,30.05,NE,38,1.0,5.0,33,0.00,,,0.00,Wunderground v.1.15,2013-05-18 20:44:00,
2013-05-18 13:49:00,78.5,45.3,30.05,North,360,0.0,6.0,31,0.00,,,0.00,Wunderground v.1.15,2013-05-18 20:49:00,
2013-05-18 13:54:00,79.8,43.8,30.05,NNW,344,3.0,4.0,28,0.00,,,0.00,Wunderground v.1.15,2013-05-18 20:54:00,
2013-05-18 13:59:00,78.8,43.8,30.05,SW,228,0.0,6.0,29,0.00,,,0.00,Wunderground v.1.15,2013-05-18 20:59:00,
2013-05-18 14:04:00,79.4,45.3,30.05,WNW,282,0.0,1.0,30,0.00,,,0.00,Wunderground v.1.15,2013-05-18 21:04:00,
2013-05-18 14:09:00,79.1,44.1,30.05,NNE,25,1.0,7.0,29,0.00,,,0.00,Wunderground v.1.15,2013-05-18 21:09:00,
2013-05-18 14:14:00,79.7,44.6,30.05,North,360,0.0,5.0,29,0.00,,,0.00,Wunderground v.1.15,2013-05-18 21:14:00,
2013-05-18 14:19:00,79.8,45.6,30.04,NNW,336,0.0,5.0,30,0.00,,,0.00,Wunderground v.1.15,2013-05-18 21:19:00,
2013-05-18 14:24:00,80.2,43.2,30.04,WNW,303,1.0,6.0,27,0.00,,,0.00,Wunderground v.1.15,2013-05-18 21:24:00,
2013-05-18 14:29:00,79.5,43.5,30.04,WSW,244,3.0,6.0,28,0.00,,,0.00,Wunderground v.1.15,2013-05-18 21:29:00,
2013-05-18 14:34:00,78.7,43.8,30.04,WSW,248,4.0,11.0,29,0.00,,,0.00,Wunderground v.1.15,2013-05-18 21:34:00,
2013-05-18 14:39:00,79.6,42.7,30.04,NNW,331,2.0,11.0,27,0.00,,,0.00,Wunderground v.1.15,2013-05-18 21:39:00,
2013-05-18 14:44:00,80.5,43.4,30.04,NNW,342,0.0,5.0,27,0.00,,,0.00,Wunderground v.1.15,2013-05-18 21:44:00,
2013-05-18 14:49:00,79.6,42.7,30.03,South,186,0.0,5.0,27,0.00,,,0.00,Wunderground v.1.15,2013-05-18 21:49:00,
2013-05-18 14:54:00,80.4,42.4,30.03,WNW,293,0.0,3.0,26,0.00,,,0.00,Wunderground v.1.15,2013-05-18 21:54:00,
2013-05-18 14:59:00,80.5,41.4,30.03,SW,219,4.0,6.0,25,0.00,,,0.00,Wunderground v.1.15,2013-05-18 21:59:00,
2013-05-18 15:04:00,80.2,41.2,30.03,North,355,5.0,7.0,25,0.00,,,0.00,Wunderground v.1.15,2013-05-18 22:04:00,
2013-05-18 15:09:00,81.4,37.7,30.03,NW,319,0.0,10.0,21,0.00,,,0.00,Wunderground v.1.15,2013-05-18 22:09:00,
2013-05-18 15:15:00,82.1,41.7,30.03,WSW,248,3.0,9.0,24,0.00,,,0.00,Wunderground v.1.15,2013-05-18 22:15:00,
2013-05-18 15:20:00,80.7,37.1,30.03,WNW,288,0.0,4.0,21,0.00,,,0.00,Wunderground v.1.15,2013-05-18 22:20:00,
2013-05-18 15:25:00,81.2,37.5,30.03,West,263,1.0,5.0,21,0.00,,,0.00,Wunderground v.1.15,2013-05-18 22:25:00,
2013-05-18 15:30:00,81.7,39.1,30.03,SSW,200,1.0,4.0,22,0.00,,,0.00,Wunderground v.1.15,2013-05-18 22:30:00,
2013-05-18 15:35:00,82.2,40.7,30.03,NW,319,1.0,6.0,23,0.00,,,0.00,Wunderground v.1.15,2013-05-18 22:35:00,
2013-05-18 15:40:00,82.0,39.4,30.02,NNE,22,4.0,6.0,22,0.00,,,0.00,Wunderground v.1.15,2013-05-18 22:40:00,
2013-05-18 15:45:00,82.0,40.5,30.02,NE,38,2.0,7.0,23,0.00,,,0.00,Wunderground v.1.15,2013-05-18 22:45:00,
2013-05-18 15:50:00,81.6,40.2,30.02,NNE,14,3.0,3.0,23,0.00,,,0.00,Wunderground v.1.15,2013-05-18 22:50:00,
2013-05-18 15:55:00,81.7,41.4,30.02,WNW,297,2.0,7.0,24,0.00,,,0.00,Wunderground v.1.15,2013-05-18 22:55:00,
2013-05-18 16:00:00,81.4,41.1,30.02,SW,234,0.0,2.0,24,0.00,,,0.00,Wunderground v.1.15,2013-05-18 23:00:00,
2013-05-18 16:05:00,82.0,41.6,30.02,West,281,0.0,7.0,24,0.00,,,0.00,Wunderground v.1.15,2013-05-18 23:05:00,
2013-05-18 16:10:00,82.7,40.0,30.02,NNE,13,0.0,2.0,22,0.00,,,0.00,Wunderground v.1.15,2013-05-18 23:10:00,
2013-05-18 16:15:00,82.8,42.3,30.01,WNW,283,0.0,4.0,24,0.00,,,0.00,Wunderground v.1.15,2013-05-18 23:15:00,
2013-05-18 16:20:00,83.4,42.8,30.01,NNW,348,0.0,0.0,24,0.00,,,0.00,Wunderground v.1.15,2013-05-18 23:20:00,
2013-05-18 16:25:00,82.4,40.9,30.01,WSW,253,1.0,6.0,23,0.00,,,0.00,Wunderground v.1.15,2013-05-18 23:25:00,
2013-05-18 16:31:00,81.5,39.0,30.01,SSW,203,6.0,8.0,22,0.00,,,0.00,Wunderground v.1.15,2013-05-18 23:31:00,
2013-05-18 16:36:00,81.3,39.9,30.01,WSW,246,4.0,8.0,23,0.00,,,0.00,Wunderground v.1.15,2013-05-18 23:36:00,
2013-05-18 16:41:00,81.9,38.1,30.01,West,267,0.0,3.0,21,0.00,,,0.00,Wunderground v.1.15,2013-05-18 23:41:00,
2013-05-18 16:46:00,81.8,39.2,30.01,WNW,290,3.0,7.0,22,0.00,,,0.00,Wunderground v.1.15,2013-05-18 23:46:00,
2013-05-18 16:51:00,82.2,38.4,30.01,SW,227,1.0,1.0,21,0.00,,,0.00,Wunderground v.1.15,2013-05-18 23:51:00,
2013-05-18 16:56:00,82.7,38.8,30.01,North,360,0.0,4.0,21,0.00,,,0.00,Wunderground v.1.15,2013-05-18 23:56:00,
2013-05-18 17:01:00,82.9,37.7,30.01,NW,304,0.0,2.0,20,0.00,,,0.00,Wunderground v.1.15,2013-05-19 00:01:00,
2013-05-18 17:06:00,83.0,37.8,30.01,NW,319,3.0,3.0,20,0.00,,,0.00,Wunderground v.1.15,2013-05-19 00:06:00,
2013-05-18 17:11:00,82.5,34.7,30.01,SSW,202,2.0,7.0,18,0.00,,,0.00,Wunderground v.1.15,2013-05-19 00:11:00,
2013-05-18 17:16:00,81.9,36.9,30.01,WSW,252,0.0,7.0,20,0.00,,,0.00,Wunderground v.1.15,2013-05-19 00:16:00,
2013-05-18 17:21:00,82.9,37.7,30.00,WNW,283,0.0,3.0,20,0.00,,,0.00,Wunderground v.1.15,2013-05-19 00:21:00,
2013-05-18 17:26:00,82.6,37.5,30.01,West,279,0.0,5.0,20,0.00,,,0.00,Wunderground v.1.15,2013-05-19 00:26:00,
2013-05-18 17:31:00,82.3,37.2,30.00,NNE,18,0.0,2.0,20,0.00,,,0.00,Wunderground v.1.15,2013-05-19 00:31:00,
2013-05-18 17:37:00,82.5,36.1,30.00,West,267,0.0,3.0,19,0.00,,,0.00,Wunderground v.1.15,2013-05-19 00:37:00,
2013-05-18 17:42:00,82.6,36.1,30.00,West,269,5.0,6.0,19,0.00,,,0.00,Wunderground v.1.15,2013-05-19 00:42:00,
2013-05-18 17:47:00,81.7,35.4,30.00,SSW,211,4.0,7.0,19,0.00,,,0.00,Wunderground v.1.15,2013-05-19 00:47:00,
2013-05-18 17:52:00,81.8,36.8,30.01,West,260,0.0,2.0,20,0.00,,,0.00,Wunderground v.1.15,2013-05-19 00:52:00,
2013-05-18 17:57:00,82.9,36.4,30.00,NNE,12,2.0,6.0,19,0.00,,,0.00,Wunderground v.1.15,2013-05-19 00:57:00,
2013-05-18 18:02:00,82.4,34.6,30.00,NNE,33,1.0,1.0,18,0.00,,,0.00,Wunderground v.1.15,2013-05-19 01:02:00,
2013-05-18 18:07:00,82.3,37.2,30.00,WSW,252,0.0,1.0,20,0.00,,,0.00,Wunderground v.1.15,2013-05-19 01:07:00,
2013-05-18 18:12:00,82.8,36.3,30.00,WNW,294,0.0,2.0,19,0.00,,,0.00,Wunderground v.1.15,2013-05-19 01:12:00,
2013-05-18 18:17:00,82.9,37.7,30.00,NW,309,0.0,5.0,20,0.00,,,0.00,Wunderground v.1.15,2013-05-19 01:17:00,
2013-05-18 18:22:00,82.5,36.1,30.00,West,265,0.0,4.0,19,0.00,,,0.00,Wunderground v.1.15,2013-05-19 01:22:00,
2013-05-18 18:27:00,82.2,37.1,30.00,NW,311,0.0,4.0,20,0.00,,,0.00,Wunderground v.1.15,2013-05-19 01:27:00,
2013-05-18 18:32:00,82.2,37.1,30.00,North,360,0.0,1.0,20,0.00,,,0.00,Wunderground v.1.15,2013-05-19 01:32:00,
2013-05-18 18:37:00,82.2,37.1,30.00,NNE,24,0.0,3.0,20,0.00,,,0.00,Wunderground v.1.15,2013-05-19 01:37:00,
2013-05-18 18:42:00,82.0,37.0,30.00,NW,316,0.0,1.0,20,0.00,,,0.00,Wunderground v.1.15,2013-05-19 01:42:00,
2013-05-18 18:47:00,81.7,36.7,30.00,NNW,345,0.0,3.0,20,0.00,,,0.00,Wunderground v.1.15,2013-05-19 01:47:00,
2013-05-18 18:52:00,81.7,36.7,29.99,NNW,337,0.0,1.0,20,0.00,,,0.00,Wunderground v.1.15,2013-05-19 01:52:00,
2013-05-18 18:57:00,81.2,36.3,29.99,West,267,0.0,1.0,20,0.00,,,0.00,Wunderground v.1.15,2013-05-19 01:57:00,
2013-05-18 19:02:00,81.3,37.6,29.99,NNW,348,0.0,1.0,21,0.00,,,0.00,Wunderground v.1.15,2013-05-19 02:02:00,
2013-05-18 19:08:00,81.0,37.4,29.99,WSW,257,0.0,3.0,21,0.00,,,0.00,Wunderground v.1.15,2013-05-19 02:08:00,
2013-05-18 19:13:00,80.7,37.1,29.99,WSW,257,0.0,1.0,21,0.00,,,0.00,Wunderground v.1.15,2013-05-19 02:13:00,
2013-05-18 19:18:00,80.2,36.7,29.99,West,268,0.0,3.0,21,0.00,,,0.00,Wunderground v.1.15,2013-05-19 02:18:00,
2013-05-18 19:23:00,80.1,37.8,29.99,West,268,0.0,0.0,22,0.00,,,0.00,Wunderground v.1.15,2013-05-19 02:23:00,
2013-05-18 19:29:00,79.6,38.5,29.99,WNW,289,0.0,1.0,23,0.00,,,0.00,Wunderground v.1.15,2013-05-19 02:29:00,
2013-05-18 19:34:00,79.2,38.2,29.99,West,267,0.0,1.0,23,0.00,,,0.00,Wunderground v.1.15,2013-05-19 02:34:00,
2013-05-18 19:39:00,78.9,40.1,29.99,West,267,4.0,5.0,25,0.00,,,0.00,Wunderground v.1.15,2013-05-19 02:39:00,
2013-05-18 19:44:00,78.2,45.9,29.99,WSW,247,0.0,7.0,32,0.00,,,0.00,Wunderground v.1.15,2013-05-19 02:44:00,
2013-05-18 19:49:00,77.5,46.9,29.99,WSW,248,4.0,7.0,34,0.00,,,0.00,Wunderground v.1.15,2013-05-19 02:49:00,
2013-05-18 19:54:00,77.0,47.2,29.99,SW,229,0.0,2.0,35,0.00,,,0.00,Wunderground v.1.15,2013-05-19 02:54:00,
2013-05-18 19:59:00,76.6,47.6,29.99,SW,229,0.0,2.0,36,0.00,,,0.00,Wunderground v.1.15,2013-05-19 02:59:00,
2013-05-18 20:04:00,76.2,47.3,29.99,SW,222,0.0,4.0,36,0.00,,,0.00,Wunderground v.1.15,2013-05-19 03:04:00,
2013-05-18 20:09:00,75.8,47.7,29.99,WSW,253,0.0,4.0,37,0.00,,,0.00,Wunderground v.1.15,2013-05-19 03:09:00,
2013-05-18 20:14:00,75.4,47.3,29.99,SW,236,0.0,3.0,37,0.00,,,0.00,Wunderground v.1.15,2013-05-19 03:14:00,
2013-05-18 20:19:00,75.1,47.0,30.00,SW,231,0.0,4.0,37,0.00,,,0.00,Wunderground v.1.15,2013-05-19 03:19:00,
2013-05-18 20:24:00,74.8,47.5,30.00,WSW,242,0.0,1.0,38,0.00,,,0.00,Wunderground v.1.15,2013-05-19 03:24:00,
2013-05-18 20:29:00,74.4,47.8,30.00,WSW,240,0.0,1.0,39,0.00,,,0.00,Wunderground v.1.15,2013-05-19 03:29:00,
2013-05-18 20:34:00,73.9,48.1,30.00,WSW,240,0.0,0.0,40,0.00,,,0.00,Wunderground v.1.15,2013-05-19 03:34:00,
2013-05-18 20:39:00,73.2,48.1,30.00,WSW,240,1.0,1.0,41,0.00,,,0.00,Wunderground v.1.15,2013-05-19 03:39:00,
2013-05-18 20:44:00,73.1,48.0,30.00,SSW,210,0.0,6.0,41,0.00,,,0.00,Wunderground v.1.15,2013-05-19 03:44:00,
2013-05-18 20:49:00,72.9,47.8,30.00,WSW,242,0.0,6.0,41,0.00,,,0.00,Wunderground v.1.15,2013-05-19 03:49:00,
2013-05-18 20:54:00,72.7,48.3,30.00,WSW,243,0.0,1.0,42,0.00,,,0.00,Wunderground v.1.15,2013-05-19 03:54:00,
2013-05-18 20:59:00,72.2,47.8,30.00,WSW,243,0.0,1.0,42,0.00,,,0.00,Wunderground v.1.15,2013-05-19 03:59:00,
2013-05-18 21:01:00,72.1,48.4,30.00,WSW,243,0.0,0.0,43,0.00,,,0.00,Wunderground v.1.15,2013-05-19 04:01:00,
2013-05-18 21:02:00,72.0,48.3,30.00,WSW,243,0.0,0.0,43,0.00,,,0.00,Wunderground v.1.15,2013-05-19 04:02:00,
2013-05-18 21:07:00,71.4,48.3,30.00,WSW,242,0.0,0.0,44,0.00,,,0.00,Wunderground v.1.15,2013-05-19 04:07:00,
2013-05-18 21:12:00,71.2,48.2,30.00,WSW,243,0.0,0.0,44,0.00,,,0.00,Wunderground v.1.15,2013-05-19 04:12:00,
2013-05-18 21:17:00,70.8,48.4,30.00,WSW,243,0.0,0.0,45,0.00,,,0.00,Wunderground v.1.15,2013-05-19 04:17:00,
2013-05-18 21:22:00,70.5,48.7,30.00,WSW,243,0.0,0.0,46,0.00,,,0.00,Wunderground v.1.15,2013-05-19 04:22:00,
2013-05-18 21:27:00,70.4,48.6,30.00,WSW,242,0.0,0.0,46,0.00,,,0.00,Wunderground v.1.15,2013-05-19 04:27:00,
2013-05-18 21:32:00,70.2,48.4,30.00,WSW,243,0.0,0.0,46,0.00,,,0.00,Wunderground v.1.15,2013-05-19 04:32:00,
2013-05-18 21:37:00,69.9,48.7,30.00,WSW,243,0.0,0.0,47,0.00,,,0.00,Wunderground v.1.15,2013-05-19 04:37:00,
2013-05-18 21:42:00,69.7,49.1,30.00,WSW,242,0.0,0.0,48,0.00,,,0.00,Wunderground v.1.15,2013-05-19 04:42:00,
2013-05-18 21:47:00,69.5,48.9,30.00,WSW,242,0.0,0.0,48,0.00,,,0.00,Wunderground v.1.15,2013-05-19 04:47:00,
2013-05-18 21:52:00,69.2,49.2,30.00,WSW,242,0.0,0.0,49,0.00,,,0.00,Wunderground v.1.15,2013-05-19 04:52:00,
2013-05-18 21:57:00,68.9,49.5,30.00,South,171,0.0,1.0,50,0.00,,,0.00,Wunderground v.1.15,2013-05-19 04:57:00,
2013-05-18 22:02:00,68.6,49.2,30.01,SSE,162,0.0,0.0,50,0.00,,,0.00,Wunderground v.1.15,2013-05-19 05:02:00,
2013-05-18 22:07:00,68.4,49.6,30.01,SSE,162,0.0,0.0,51,0.00,,,0.00,Wunderground v.1.15,2013-05-19 05:07:00,
2013-05-18 22:12:00,68.0,49.2,30.02,SSE,162,0.0,0.0,51,0.00,,,0.00,Wunderground v.1.15,2013-05-19 05:12:00,
2013-05-18 22:18:00,67.5,49.8,30.01,SSE,162,0.0,0.0,53,0.00,,,0.00,Wunderground v.1.15,2013-05-19 05:18:00,
2013-05-18 22:24:00,67.0,49.3,30.01,SSE,162,0.0,0.0,53,0.00,,,0.00,Wunderground v.1.15,2013-05-19 05:24:00,
2013-05-18 22:29:00,66.6,49.4,30.02,SSE,161,0.0,0.0,54,0.00,,,0.00,Wunderground v.1.15,2013-05-19 05:29:00,
2013-05-18 22:34:00,66.4,49.7,30.02,SSE,161,0.0,0.0,55,0.00,,,0.00,Wunderground v.1.15,2013-05-19 05:34:00,
2013-05-18 22:39:00,66.0,49.4,30.02,SSE,162,0.0,0.0,55,0.00,,,0.00,Wunderground v.1.15,2013-05-19 05:39:00,
2013-05-18 22:44:00,65.8,49.7,30.02,SSE,162,0.0,0.0,56,0.00,,,0.00,Wunderground v.1.15,2013-05-19 05:44:00,
2013-05-18 22:49:00,65.4,49.8,30.02,SSE,161,0.0,0.0,57,0.00,,,0.00,Wunderground v.1.15,2013-05-19 05:49:00,
2013-05-18 22:54:00,65.2,50.0,30.02,SSE,161,0.0,0.0,58,0.00,,,0.00,Wunderground v.1.15,2013-05-19 05:54:00,
2013-05-18 22:59:00,64.9,49.8,30.02,SSE,161,0.0,0.0,58,0.00,,,0.00,Wunderground v.1.15,2013-05-19 05:59:00,
2013-05-18 23:04:00,64.6,49.9,30.02,SSE,162,0.0,0.0,59,0.00,,,0.00,Wunderground v.1.15,2013-05-19 06:04:00,
2013-05-18 23:09:00,64.4,49.8,30.02,SSE,161,0.0,0.0,59,0.00,,,0.00,Wunderground v.1.15,2013-05-19 06:09:00,
2013-05-18 23:14:00,64.3,49.7,30.02,SSE,162,0.0,0.0,59,0.00,,,0.00,Wunderground v.1.15,2013-05-19 06:14:00,
2013-05-18 23:19:00,64.1,49.9,30.02,SSE,162,0.0,0.0,60,0.00,,,0.00,Wunderground v.1.15,2013-05-19 06:19:00,
2013-05-18 23:24:00,63.9,49.7,30.02,SSE,162,0.0,0.0,60,0.00,,,0.00,Wunderground v.1.15,2013-05-19 06:24:00,
2013-05-18 23:29:00,63.8,50.1,30.02,SSE,162,0.0,0.0,61,0.00,,,0.00,Wunderground v.1.15,2013-05-19 06:29:00,
2013-05-18 23:34:00,63.8,50.1,30.02,SSE,162,0.0,0.0,61,0.00,,,0.00,Wunderground v.1.15,2013-05-19 06:34:00,
2013-05-18 23:39:00,63.5,50.2,30.02,SSE,161,0.0,0.0,62,0.00,,,0.00,Wunderground v.1.15,2013-05-19 06:39:00,
2013-05-18 23:44:00,63.2,50.0,30.02,SSE,161,0.0,0.0,62,0.00,,,0.00,Wunderground v.1.15,2013-05-19 06:44:00,
2013-05-18 23:49:00,63.3,49.6,30.02,SSE,162,0.0,1.0,61,0.00,,,0.00,Wunderground v.1.15,2013-05-19 06:49:00,
2013-05-18 23:54:00,63.3,50.1,30.02,SSE,161,0.0,0.0,62,0.00,,,0.00,Wunderground v.1.15,2013-05-19 06:54:00,
2013-05-18 23:59:00,63.1,49.9,30.03,SSE,162,0.0,0.0,62,0.00,,,0.00,Wunderground v.1.15,2013-05-19 06:59:00,